Location: Powder Track
(41.8531°N, 72.3584°W)
Time: 09:28:02
(UTC+00:00)

Transit 4A - Pass Details

Date: 09 August 2021
Orbit: 871 x 974 km, 66.8° (Epoch: 20 September)

Event Time Altitude Azimuth Distance (km) Brightness Sun altitude
Rises 12:08:44 0° 326° (NW) 3,484 10.6 24.0°
Reaches altitude 10° 12:11:14 10° 323° (NW) 2,551 9.9 24.5°
Maximum altitude 12:17:01 59° 245° (WSW) 1,029 8.2 25.6°
Drops below altitude 10° 12:22:55 10° 167° (SSE) 2,599 10.5 26.7°
Sets 12:25:29 0° 164° (SSE) 3,554 11.2 27.2°
